Regional Weather Roundup
Issued by NWS

Home | Current Version | Previous Version | Graphics & Text | Print | Product List | Glossary On
Versions: 1 2 3 4 5 6 7 8 9 10 11 12 13 14 15 16 17 18 19 20 21 22 23 24 25 26 27 28 29 30 31 32 33 34 35 36 37 38 39 40 41 42 43 44 45 46 47 48 49 50
000
ASUS45 KSLC 280010
RWRUT

UTAH REGIONAL WEATHER ROUNDUP
NATIONAL WEATHER SERVICE SALT LAKE CITY UT
600 PM MDT FRI MAR 27 2015

UTZ001>011-023>025-280100-

NORTHERN UTAH

CITY           SKY/WX    TMP DP  RH WIND       PRES   REMARKS
BRIGHAM CITY   SUNNY     68  30  24 CALM      30.18F
HILL AFB       SUNNY     67  30  25 W3        30.19F
LOGAN          SUNNY     68  34  28 SW5       30.17F
OGDEN          SUNNY     68  31  25 W3        30.17F
PROVO AIRPORT  SUNNY     66  32  28 VRB6      30.18F
SALT LAKE CITY SUNNY     71  32  23 N7        30.16F
VERNAL         MOSUNNY   69  25  19 S6        30.15F
WENDOVER       SUNNY     66  27  22 CALM      30.16F
HEBER CITY     SUNNY     68  28  22 SW10G17   30.19S
WEST JORDAN    SUNNY     70  36  28 CALM      30.18F

$$

UTZ012>022-026-027-280100-

SOUTHERN/CENTRAL UTAH

CITY           SKY/WX    TMP DP  RH WIND       PRES   REMARKS
BLANDING       SUNNY     70  22  15 W3        30.25S
BRYCE CANYON   SUNNY     66  24  20 NW10      30.29F
CEDAR CITY     SUNNY     73  21  14 N8        30.19S
DELTA          SUNNY     71  25  17 S5        30.17F
HANKSVILLE     SUNNY     75  21  13 CALM      30.14F
MILFORD        SUNNY     75  26  16 N7        30.16F
MOAB/CYNLANDS  SUNNY     73  21  14 W5        30.12F
PRICE          SUNNY     71  24  17 VRB3      30.17F
ST GEORGE      CLEAR     82  27  13 W10       30.08F

$$

REGIONAL REPORTS     COLORADO/ARIZONA

CITY           SKY/WX    TMP DP  RH WIND       PRES   REMARKS
CRAIG, CO      PTSUNNY   66  30  26 S12       30.17F
GRAND JUNCTION SUNNY     70  25  18 N6        30.13F
RIFLE          SUNNY     71  22  15 NW14      30.15S
MONTROSE       SUNNY     70  20  15 NW13      30.19F
CORTEZ         SUNNY     69  22  16 W16G22    30.19F
PAGE, AZ       SUNNY     77  22  13 NE5       30.12F
GRAND CANYON   SUNNY     72  14  11 SW10      30.26F
KINGMAN        SUNNY     81  20  10 SW12      30.12F
FLAGSTAFF      SUNNY     68  11  11 W10G23    30.30S

$$

REGIONAL REPORTS    NEVADA/IDAHO/WYOMING

CITY           SKY/WX    TMP DP  RH WIND       PRES   REMARKS
LAS VEGAS, NV  SUNNY     88  21   8 CALM      29.99F
ELY            SUNNY     73  21  14 VRB6      30.20F
ELKO           SUNNY     74  25  16 MISG      30.14F
POCATELLO, ID  SUNNY     72  33  24 W15       30.12F
BURLEY         SUNNY     73  35  25 VRB5      30.09F
EVANSTON, WY   MOSUNNY   62  27  26 W14       30.26S
ROCK SPRINGS   CLOUDY    66  24  20 W15G21    30.19F
KEMMERER       SUNNY     59  28  31 NW9       30.26S

$$



USA.gov is the U.S. government's official web portal to all federal, state and local government web resources and services.